sat.trackr.live / text

‹ back to catalog

STARLINK-5306

NORAD 55271 · 2023-010C

PAYLOAD ACTIVE UNKNOWN

§ Identity

Operator
Country
US
Launch date
2023-01-19
Launch site
AFWTR
Launch vehicle
Mass (kg)
RCS (m²)

Purposes: comms

External: N2YO · Heavens-Above · Gunter

§ Orbital elements

Epoch: 2026-09-20T22:00:03.000096Z

Period
95.64 min
Inclination
69.9982°
Eccentricity
0.0003790
Mean motion
15.05690495 rev/d
Perigee alt
546.8 km
Apogee alt
552.0 km
Semi-major
6,927.5 km
B*
7.1211e-3
RAAN
272.2462°
Arg perigee
231.6724°
Mean anomaly
305.8445°
Rev number
571

§ Raw data

STARLINK-53061 55271U 23010C   26263.91670139  .00104589  00000+0  71211-2 0  99912 55271  69.9982 272.2462 0003790 231.6724 305.8445 15.05690495  5710

JSON: /api/v1/satellites/55271 · /tle

For live sub-satellite position, see the globe view (requires WebGL).

§ Visibility from observer

Set your observer location to see the next 7 days of passes ≥ 10°. The values pass through the URL so the page stays shareable.

No JS? Fill the form by hand. The geolocation button needs JavaScript.